Blaine, MN

2:45 PM CST on February 13, 2016 (GMT -0600)
Anoka County / Blaine Airport

Weather History for KANE - May, 2014

Change the Weather History Date:

Monday, May 19, 2014

  Actual Average Record
Temperature  
Mean Temperature 58 °F -  
Max Temperature 62 °F 64 °F 86 °F (2012)
Min Temperature 53 °F 44 °F 30 °F (2000)
Degree Days  
Heating Degree Days 8    
Growing Degree Days 8 (Base 50)    
Moisture  
Dew Point 47 °F    
Average Humidity 70    
Maximum Humidity 100    
Minimum Humidity 37    
Precipitation  
Precipitation 0.01 in - - ()
Sea Level Pressure  
Sea Level Pressure 29.90 in    
Wind  
Wind Speed 12 mph (SE)    
Max Wind Speed 17 mph    
Max Gust Speed 25 mph    
Visibility 8 miles    
Events Rain , Thunderstorm    
Averages and records for this station are not official NWS values.
T = Trace of Precipitation, MM = Missing Value Source: NWS Daily Summary

Daily Weather History Graph

Daily Weather History Graph

Search for Another Location

Airport or City:

Trip Planner

Search our weather history database for the weather conditions in past years. The results will help you decide how hot, cold, wet, or windy it might be!

Date:

Astronomy

May. 19, 2014 Rise Set
Actual Time 5:39 AM CDT 8:40 PM CDT
Civil Twilight 5:04 AM CDT 9:15 PM CDT
Nautical Twilight 4:19 AM CDT 10:00 PM CDT
Astronomical Twilight 3:26 AM CDT 10:54 PM CDT
Moon 12:24 AM CDT (5/19) 10:41 AM CDT (5/19)
Length of Visible Light 16h 11m
Length of Day
15h 01m
Waning Gibbous, 71% of the Moon is Illuminated
May 19
Waning Gibbous
May 21
Last Quarter
May 28
New
Jun 5
First Quarter
Jun 12
Full

Hourly Weather History & Observations

Time (CDT) Temp. Dew Point Humidity Pressure Visibility Wind Dir Wind Speed Gust Speed Precip Events Conditions
12:14 AM 62.6 °F 35.6 °F 37% 30.00 in 10.0 mi SSE 13.8 mph - N/A   Clear
12:34 AM 62.6 °F 37.4 °F 39% 30.01 in 10.0 mi South 8.1 mph - N/A   Clear
12:54 AM 62.6 °F 37.4 °F 39% 30.01 in 10.0 mi SSE 9.2 mph - N/A   Clear
1:14 AM 60.8 °F 37.4 °F 42% 30.00 in 10.0 mi SSE 10.4 mph - N/A   Clear
1:34 AM 60.8 °F 39.2 °F 45% 30.00 in 10.0 mi SSE 11.5 mph - N/A   Clear
1:54 AM 60.8 °F 39.2 °F 45% 30.01 in 10.0 mi SSE 9.2 mph - N/A   Scattered Clouds
2:14 AM 60.8 °F 39.2 °F 45% 30.01 in 10.0 mi SSE 9.2 mph - N/A   Scattered Clouds
2:34 AM 60.8 °F 39.2 °F 45% 30.01 in 10.0 mi SSE 9.2 mph - N/A   Mostly Cloudy
2:54 AM 60.8 °F 39.2 °F 45% 30.00 in 10.0 mi SSE 10.4 mph - N/A   Mostly Cloudy
3:14 AM 60.8 °F 39.2 °F 45% 29.99 in 10.0 mi SE 9.2 mph - N/A   Mostly Cloudy
3:34 AM 60.8 °F 41.0 °F 48% 29.98 in 10.0 mi SSE 11.5 mph - N/A   Scattered Clouds
3:54 AM 60.8 °F 42.8 °F 52% 29.98 in 10.0 mi SE 9.2 mph - N/A   Scattered Clouds
4:14 AM 60.8 °F 42.8 °F 52% 29.98 in 10.0 mi SE 13.8 mph 17.3 mph N/A   Mostly Cloudy
4:35 AM 60.8 °F 42.8 °F 52% 29.96 in 10.0 mi SE 13.8 mph 19.6 mph N/A   Mostly Cloudy
4:54 AM 60.8 °F 42.8 °F 52% 29.95 in 10.0 mi SE 13.8 mph 18.4 mph N/A   Overcast
5:14 AM 60.8 °F 42.8 °F 52% 29.95 in 10.0 mi SE 15.0 mph 18.4 mph N/A   Overcast
5:35 AM 60.8 °F 42.8 °F 52% 29.95 in 10.0 mi SE 12.7 mph 19.6 mph N/A   Overcast
5:54 AM 60.8 °F 42.8 °F 52% 29.95 in 10.0 mi SE 16.1 mph 19.6 mph N/A   Overcast
6:14 AM 60.8 °F 42.8 °F 52% 29.94 in 10.0 mi SE 15.0 mph 20.7 mph N/A   Overcast
6:34 AM 60.8 °F 42.8 °F 52% 29.92 in 10.0 mi SE 16.1 mph 25.3 mph N/A   Overcast
6:54 AM 60.8 °F 42.8 °F 52% 29.94 in 10.0 mi SE 16.1 mph 24.2 mph N/A   Mostly Cloudy
9:45 AM 57.2 °F 44.6 °F 63% 29.88 in 10.0 mi ESE 15.0 mph 23.0 mph N/A   Light Drizzle
10:45 AM 53.6 °F 50.0 °F 88% 29.89 in 3.0 mi SE 8.1 mph - N/A Rain , Thunderstorm Thunderstorms and Rain
11:15 AM 53.6 °F 51.8 °F 94% 29.83 in 7.0 mi East 16.1 mph - N/A Rain Rain
11:45 AM 53.6 °F 51.8 °F 94% 29.85 in 10.0 mi East 9.2 mph 21.9 mph N/A   Mostly Cloudy
12:10 PM 53.6 °F 51.8 °F 94% 29.89 in 5.5 mi ESE 17.3 mph 23.0 mph N/A Rain Heavy Rain
12:25 PM 53.6 °F 51.8 °F 94% 29.90 in 4.0 mi SE 10.4 mph - N/A Rain , Thunderstorm Thunderstorms and Rain
3:02 PM 53.6 °F 51.8 °F 94% 29.83 in 7.0 mi SE 16.1 mph 25.3 mph N/A Rain , Thunderstorm Thunderstorms and Rain
5:45 PM 53.6 °F 53.6 °F 100% 29.78 in 4.0 mi SE 12.7 mph 24.2 mph N/A   Overcast
6:45 PM 55.4 °F 53.6 °F 94% 29.78 in 7.0 mi SE 11.5 mph 19.6 mph N/A   Overcast
7:45 PM 55.4 °F 53.6 °F 94% 29.78 in 7.0 mi SE 11.5 mph 19.6 mph N/A   Overcast
8:45 PM 55.4 °F 53.6 °F 94% - 7.0 mi SE 9.2 mph - N/A   Overcast
9:14 PM 55.4 °F 53.6 °F 94% 29.80 in 5.0 mi SSE 10.4 mph - N/A   Light Drizzle
9:34 PM 55.4 °F 53.6 °F 94% 29.80 in 4.0 mi SSE 10.4 mph - N/A   Light Drizzle
9:45 PM 55.4 °F 53.6 °F 94% - 5.0 mi SE 9.2 mph - N/A   Overcast
9:54 PM 55.4 °F 53.6 °F 94% 29.80 in 3.0 mi SSE 9.2 mph - 0.01 in   Light Drizzle
10:14 PM 55.4 °F 53.6 °F 94% 29.81 in 4.0 mi SSE 6.9 mph - N/A   Light Drizzle
10:34 PM 55.4 °F 53.6 °F 94% 29.76 in 4.0 mi ESE 13.8 mph - N/A   Light Drizzle
10:54 PM 55.4 °F 53.6 °F 94% 29.77 in 5.0 mi SE 11.5 mph - N/A Rain Light Rain
11:14 PM 55.4 °F 53.6 °F 94% 29.77 in 7.0 mi SE 8.1 mph - N/A   Overcast
11:34 PM 55.4 °F 53.6 °F 94% 29.75 in 7.0 mi SE 9.2 mph - N/A   Overcast
11:54 PM 55.4 °F 53.6 °F 94% 29.77 in 7.0 mi SSE 6.9 mph - N/A   Overcast